GFSSE_925_spd_000.txt.gz
Wind_Speed
9 10 10 12 15 14 16 13 11 10 12 13 14 13 12 13 16 17 18 17 15 11 9 10 7 9 6 4 6 7 2 3 3 4 3 4 6 8 9 11 8 13 14
11 9 10 12 14 14 16 15 14 12 12 12 12 11 12 11 12 12 12 12 12 2 6 7 8 17 14 6 3 4 3 3 1 2 5 8 10 11 10 14 10 10 12
8 8 10 12 14 14 17 16 16 14 13 9 8 9 9 8 9 8 8 8 6 13 14 6 6 11 7 14 11 3 4 7 5 4 5 5 9 12 12 15 13 11 12
9 7 10 10 13 13 14 14 14 13 11 9 8 8 8 9 8 8 11 14 14 8 5 2 3 13 8 5 7 10 11 9 9 8 8 6 7 8 10 12 14 12 14
8 9 10 10 12 12 12 11 11 10 9 7 8 8 7 8 7 8 11 10 4 3 2 1 1 7 12 16 16 19 20 17 12 12 12 10 9 10 13 11 15 15 15
8 9 9 10 11 12 11 10 10 10 9 8 7 7 7 6 5 4 5 4 6 3 2 4 2 4 10 8 11 17 18 20 16 15 16 13 13 14 16 13 17 18 16
12 10 11 10 11 10 9 9 8 8 8 8 8 7 6 5 3 2 2 3 5 5 6 7 9 13 14 15 21 16 17 15 17 16 17 16 11 14 17 14 18 21 19
14 12 10 9 10 10 8 8 7 6 6 6 5 5 6 5 5 4 3 3 4 3 4 5 8 15 16 14 21 22 16 13 12 15 18 17 12 14 19 17 19 21 21
13 12 13 12 11 9 9 6 5 5 5 5 5 5 5 5 5 4 3 3 3 2 2 3 3 4 6 6 7 11 14 14 13 13 18 17 16 16 23 19 19 21 22
15 13 12 11 9 8 8 7 5 5 4 3 4 5 4 5 6 5 5 4 4 3 4 4 3 2 4 4 4 7 8 10 11 11 14 17 17 17 23 20 20 21 22
15 14 13 10 7 7 6 7 6 7 7 5 5 7 6 5 3 4 4 6 6 6 6 5 6 6 6 4 5 7 9 10 11 11 13 13 15 13 17 20 20 20 23
21 17 11 8 7 7 7 7 7 6 5 6 6 7 7 5 2 4 3 3 5 5 5 6 6 6 9 8 9 9 11 13 14 15 15 17 15 14 16 18 19 19 22
17 14 10 5 5 9 6 11 10 7 8 8 7 8 7 6 5 7 6 4 4 2 3 2 4 7 9 12 14 13 12 11 14 14 16 13 14 18 18 20 21 22 22
18 13 10 5 6 6 6 7 8 10 11 10 7 7 6 6 5 6 6 5 5 4 4 5 5 6 8 10 11 12 12 16 20 18 16 17 17 15 17 19 21 23 24
17 15 10 3 5 8 6 9 10 12 14 14 11 10 8 9 7 7 7 5 4 4 5 7 9 8 9 12 13 14 16 17 17 15 17 19 20 22 18 17 20 21 23
21 18 12 7 4 7 7 6 7 9 10 9 10 9 8 9 8 9 9 8 6 5 6 6 7 8 9 11 12 13 14 17 19 20 20 22 23 23 23 22 22 23 23
17 16 13 9 6 6 6 8 8 9 11 11 11 9 8 10 10 9 9 10 9 6 6 5 7 6 9 10 12 12 14 13 15 19 21 22 25 24 25 27 26 25 24
15 17 13 8 7 6 5 7 8 10 11 11 13 13 11 11 10 12 11 11 8 7 6 5 4 7 9 10 12 14 15 17 19 19 21 23 25 26 27 26 28 31 30
15 17 12 8 6 4 5 7 9 10 14 14 15 16 15 13 13 12 12 11 8 8 8 7 5 7 9 11 13 15 16 16 18 21 20 20 22 24 25 26 29 31 31
17 12 9 6 4 8 9 9 12 16 14 16 16 20 20 17 14 14 13 14 11 11 11 11 8 7 8 11 12 16 14 16 18 14 21 19 22 14 19 23 27 30 33
16 10 5 5 7 10 11 14 15 18 20 20 20 18 23 21 20 17 17 14 16 14 14 12 8 8 9 9 13 16 17 18 12 24 13 24 20 21 21 14 22 20 26
11 8 7 6 8 12 15 19 20 23 25 24 24 24 26 27 27 25 22 20 18 17 16 12 8 5 5 7 6 7 4 16 17 16 25 19 23 21 23 24 26 26 22
10 8 8 9 12 14 18 21 24 25 25 28 29 27 29 30 31 30 29 24 22 20 19 14 9 6 2 2 7 3 3 3 15 17 22 21 17 22 21 22 25 29 21
12 12 13 13 15 18 20 24 28 32 28 36 38 36 32 26 34 33 31 27 22 20 15 11 8 4 2 4 11 9 16 16 4 10 14 21 24 24 25 23 21 22 21
10 11 15 15 19 18 21 24 26 30 37 41 40 36 35 31 32 34 31 28 21 20 15 8 1 3 7 10 15 19 24 24 21 7 12 16 25 21 22 28 31 34 31
8 5 7 10 13 16 20 23 28 32 38 37 39 40 35 28 24 27 28 22 18 14 13 7 4 6 12 16 21 25 25 13 14 11 8 13 15 23 24 26 27 24 26

GFSSE_925_spd_003.txt.gz
Wind_Speed
9 10 9 10 10 10 11 12 14 15 12 11 11 11 14 17 17 16 15 13 10 10 8 9 10 12 13 12 12 12 7 3 2 3 3 3 3 4 4 5 7 9 11
13 12 11 11 11 12 14 12 13 14 13 10 9 10 10 13 15 15 15 13 10 4 2 5 8 11 13 12 11 13 15 9 5 4 5 5 4 6 7 9 7 8 11
14 15 12 14 10 13 14 13 13 12 11 8 7 7 7 9 11 13 12 5 7 13 12 12 7 12 15 13 12 14 12 16 10 8 6 8 9 10 10 11 10 12 12
14 12 11 12 11 9 14 13 12 11 9 7 6 6 6 7 7 7 8 11 14 14 10 9 4 8 8 9 14 14 13 12 11 9 9 9 9 10 13 14 17 15 12
12 12 11 12 12 11 12 11 10 9 7 7 6 5 5 5 5 8 10 11 11 6 6 6 5 11 16 12 10 12 16 16 10 14 14 12 11 11 12 16 17 19 17
13 12 12 11 11 10 10 9 8 8 6 7 6 7 6 5 5 5 5 3 3 3 5 9 8 9 8 9 11 19 12 13 8 15 14 12 11 13 14 17 18 19 20
14 13 12 10 9 8 7 6 6 6 5 5 5 6 6 4 4 4 4 3 4 4 7 10 11 12 13 12 14 12 10 9 7 14 14 13 13 12 14 19 16 21 22
15 13 12 11 9 7 6 5 5 6 5 4 3 2 3 4 3 3 3 3 4 5 7 7 10 13 17 14 13 16 11 11 13 11 13 12 14 12 12 18 16 19 22
13 12 12 11 9 8 6 6 6 6 6 6 5 5 4 4 3 2 2 2 2 3 6 7 8 8 7 8 9 9 8 11 10 11 10 12 12 14 14 18 18 20 21
14 13 12 10 9 7 6 4 5 5 5 5 5 4 4 2 1 2 2 2 3 4 6 6 5 3 2 4 5 6 5 5 6 9 12 12 13 16 17 17 21 21 22
14 14 12 9 7 7 7 6 5 5 5 4 4 4 3 2 1 3 3 4 5 6 6 7 6 6 6 6 7 9 10 10 9 9 10 10 11 12 12 16 21 20 22
19 15 13 10 8 9 8 6 6 8 7 5 5 6 5 4 3 3 5 5 5 6 6 7 8 8 7 8 10 11 12 15 14 15 14 14 15 14 12 12 18 20 21
19 15 13 10 11 12 12 11 11 10 9 8 8 8 8 8 7 8 8 7 6 6 6 6 5 4 4 6 8 11 13 14 17 18 15 14 13 13 14 16 18 19 20
22 18 15 11 11 10 8 11 12 12 12 12 10 10 10 10 10 9 10 9 9 9 8 8 8 9 10 9 11 12 12 13 13 15 18 19 18 16 16 16 18 22 22
24 20 16 11 11 8 7 9 11 12 14 13 12 11 11 12 11 10 10 10 9 8 7 7 9 10 11 11 11 12 13 13 13 15 17 18 20 19 17 18 19 18 20
24 20 16 13 10 8 8 7 7 9 11 13 13 12 11 12 14 13 12 12 10 8 6 6 6 7 7 9 10 11 12 13 13 14 16 18 20 22 21 18 22 22 20
24 22 19 13 8 6 7 7 8 9 11 13 13 14 13 12 13 13 14 14 13 10 9 8 7 5 5 6 8 9 12 13 13 15 16 18 20 22 22 20 20 23 28
23 22 16 11 7 7 6 6 8 9 11 12 13 14 14 14 14 14 14 14 13 12 12 10 7 6 7 8 9 10 11 12 12 15 17 17 17 19 19 21 20 19 22
18 20 15 9 7 6 6 7 9 11 12 14 16 18 18 17 16 16 16 16 14 13 13 12 10 9 9 9 10 11 13 13 14 17 13 23 16 18 16 18 18 17 19
17 17 11 9 8 7 7 9 11 14 16 17 19 21 20 21 21 19 19 19 19 17 17 16 15 12 11 10 11 12 12 11 14 12 20 14 23 20 19 18 15 23 21
16 14 11 8 6 9 8 10 13 17 20 20 21 23 24 26 27 26 25 23 23 23 22 20 19 16 14 10 9 8 7 7 9 9 17 23 19 21 22 20 21 21 22
12 11 10 9 8 10 10 11 15 18 22 25 26 27 28 29 29 33 32 31 29 29 27 24 24 19 14 9 4 1 3 5 2 22 12 16 21 18 22 23 23 23 22
12 12 11 10 11 13 14 16 20 23 26 28 32 34 36 34 35 39 40 38 35 33 33 31 29 24 17 10 5 4 1 3 7 6 20 12 14 23 23 25 27 24 21
10 8 12 14 15 16 16 17 22 27 26 35 37 37 40 39 38 40 42 44 41 33 32 30 26 24 17 12 6 5 2 3 2 5 7 14 17 20 25 23 25 29 31
7 8 9 10 11 13 16 19 22 24 28 31 34 37 38 37 37 38 40 44 40 29 27 23 19 14 11 11 6 2 6 4 6 5 5 11 21 18 21 23 23 25 25
12 13 12 10 11 15 19 23 27 31 35 33 31 31 33 32 31 30 36 33 25 16 12 8 8 7 6 7 6 8 6 3 4 5 3 7 13 18 22 21 23 26 28

GFSSE_925_spd_006.txt.gz
Wind_Speed
5 7 6 6 7 9 8 9 8 9 11 11 14 16 14 14 13 11 9 8 5 4 2 3 4 4 6 5 6 6 7 9 12 11 7 5 4 5 7 8 6 5 7
7 8 6 5 7 9 11 11 9 9 10 10 9 10 11 11 11 11 10 8 5 1 7 9 9 10 10 12 9 7 9 8 6 7 10 8 7 6 7 9 10 9 8
9 8 7 6 7 13 11 10 10 7 7 8 7 8 8 8 10 9 6 3 7 13 16 14 10 8 11 11 11 10 8 7 6 7 5 5 7 7 9 8 10 11 11
9 10 9 9 10 12 12 12 10 9 7 6 6 6 6 7 8 8 9 10 14 16 16 13 5 4 6 7 8 8 7 5 5 6 3 4 7 7 9 11 12 12 13
11 11 10 10 11 11 12 11 9 7 6 5 5 4 5 6 6 8 9 12 12 10 7 6 4 5 10 10 10 12 9 10 9 7 7 7 7 5 7 11 13 14 14
13 12 11 11 12 10 9 9 8 8 7 6 5 5 5 5 6 7 6 6 5 6 7 9 9 9 9 9 10 9 13 14 12 11 11 9 9 6 9 10 14 15 18
16 14 13 11 9 8 7 7 6 5 4 4 5 5 4 4 4 4 4 4 6 7 9 9 9 10 13 13 12 9 9 8 7 8 10 12 11 10 11 15 16 16 15
18 16 12 10 7 5 4 4 3 2 1 1 2 1 2 3 4 4 4 5 5 7 7 8 8 9 11 8 9 9 9 11 11 12 10 11 12 14 14 10 14 15 15
15 12 12 9 7 5 3 2 1 1 1 1 1 1 2 2 3 4 4 4 4 6 7 7 8 8 8 7 7 7 6 5 6 7 8 8 12 13 12 11 14 16 16
13 11 10 8 6 5 4 2 1 1 2 2 2 3 4 4 5 5 5 6 6 7 8 9 9 8 7 7 8 9 8 7 7 7 9 9 11 12 12 13 15 17 18
12 11 10 9 7 4 2 2 1 1 2 3 4 5 5 5 5 6 7 7 7 7 7 8 8 8 8 9 9 10 9 8 7 8 10 10 11 13 14 11 13 18 19
15 15 13 10 6 5 5 5 4 3 5 6 6 7 7 6 6 6 7 8 9 9 7 7 7 9 10 9 10 10 10 11 10 8 9 9 10 12 12 12 11 14 18
19 16 14 10 8 8 9 9 9 8 9 9 8 9 10 10 10 10 10 9 10 10 8 8 7 6 6 7 8 10 13 13 12 11 10 10 9 11 13 12 12 14 16
23 18 14 11 9 9 10 13 12 12 12 11 11 11 12 12 12 12 12 12 12 11 11 10 9 8 9 10 10 10 9 11 12 13 12 11 11 11 13 14 13 13 14
22 20 16 13 10 9 9 10 12 12 13 13 13 13 13 13 14 14 15 15 14 13 11 10 9 9 7 5 5 6 7 9 9 10 13 13 12 13 13 14 16 14 14
24 22 17 14 10 9 7 7 7 9 11 12 15 14 15 15 16 16 15 15 15 14 13 10 9 9 8 6 5 6 7 8 8 11 13 15 17 17 15 14 16 17 16
27 22 19 13 9 7 6 7 8 8 10 12 14 15 16 16 17 17 16 16 17 16 14 12 11 10 7 7 6 6 6 7 7 8 11 13 14 18 18 16 12 14 16
23 18 15 11 9 7 6 7 8 9 10 12 14 15 17 18 17 17 18 17 16 17 16 15 13 11 9 8 8 7 6 6 4 8 8 13 12 14 16 17 16 10 13
16 15 15 12 9 6 6 7 10 11 12 12 15 18 20 21 21 22 22 20 18 18 19 18 17 15 13 11 10 9 9 8 5 3 8 6 14 14 15 16 16 18 17
13 14 13 11 9 6 6 8 10 12 13 14 16 19 21 23 25 26 27 25 23 23 24 22 21 19 19 15 13 14 13 11 9 3 2 8 10 10 14 12 16 15 17
12 14 13 11 10 7 7 10 13 14 15 16 18 21 24 27 29 30 32 31 29 29 29 27 25 23 22 17 13 12 13 12 12 7 5 2 9 12 7 13 18 19 21
15 13 11 10 8 10 12 12 12 15 19 24 27 29 30 30 33 37 38 38 37 36 35 33 31 29 26 21 9 2 2 4 11 10 7 7 9 6 13 18 17 21 22
9 8 8 9 10 10 12 15 18 20 23 26 30 29 29 35 36 34 38 44 45 43 41 40 37 34 30 23 21 9 1 5 1 5 5 7 6 15 10 18 16 19 20
4 5 8 9 7 9 12 15 17 20 24 28 30 32 31 29 31 30 30 35 45 48 45 45 40 37 30 21 16 16 8 3 3 3 2 4 7 10 17 17 19 17 16
5 9 13 13 14 17 20 22 22 23 24 28 30 29 27 30 29 30 30 28 34 40 42 38 29 23 19 10 1 4 5 5 5 3 3 4 16 10 14 17 16 16 20
14 15 17 18 20 22 22 22 21 23 27 31 33 33 34 33 29 27 26 23 21 18 17 14 17 16 12 10 9 7 5 3 1 2 2 4 7 18 19 17 15 18 14

GFSSE_925_spd_009.txt.gz
Wind_Speed
5 6 5 2 3 6 5 6 9 12 10 8 10 10 10 8 9 11 11 9 7 4 3 5 6 7 9 7 5 4 5 5 5 2 2 2 3 7 6 7 9 11 10
7 6 6 5 5 6 7 6 6 9 10 9 10 10 10 11 11 10 7 6 1 4 7 11 12 10 10 8 6 5 4 4 4 3 3 2 2 3 6 6 6 8 10
9 9 7 7 8 8 9 7 6 7 8 9 9 11 10 10 10 7 3 0 6 11 14 15 10 7 7 6 4 5 3 3 2 4 5 4 3 5 5 6 6 7 9
10 11 10 9 9 10 10 8 8 7 7 7 7 8 9 9 8 4 4 7 12 14 13 10 8 6 7 7 5 4 4 3 3 5 4 4 6 7 7 8 7 7 8
12 12 11 11 11 10 9 7 7 6 5 4 3 4 4 5 5 5 7 9 9 8 6 5 5 5 7 7 8 7 8 8 7 9 8 8 6 7 8 8 9 10 11
13 13 12 10 9 7 7 6 4 4 3 2 1 2 1 2 4 5 6 7 5 4 5 6 5 6 8 8 9 8 5 7 8 7 8 9 8 8 8 10 9 11 13
13 12 11 10 8 7 5 4 3 3 2 2 2 1 1 2 4 4 3 3 5 6 7 7 6 6 7 7 7 7 6 6 7 6 6 9 11 11 12 10 12 13 14
13 12 11 9 7 5 4 3 2 1 1 2 2 1 1 2 3 2 3 3 4 5 6 7 7 7 7 6 5 4 3 5 8 8 7 6 8 9 11 14 12 14 14
12 12 10 8 6 4 2 1 0 1 1 1 2 2 3 4 4 5 4 4 5 7 8 8 7 6 6 5 5 5 5 4 3 4 4 4 6 8 7 11 11 12 15
14 12 10 8 5 4 3 2 1 0 1 1 2 3 4 5 6 6 6 6 6 7 9 9 8 8 7 6 6 6 5 4 4 4 5 5 6 7 6 12 9 12 16
13 11 11 8 6 4 4 3 2 1 2 2 3 4 4 5 6 6 7 7 8 7 8 9 9 9 8 8 8 8 8 6 5 5 5 7 7 7 5 8 10 11 14
15 15 13 9 7 4 3 4 3 3 4 4 5 6 7 7 8 9 9 10 10 10 10 11 10 10 9 7 8 8 7 7 5 5 6 8 8 8 7 7 7 7 9
14 14 13 11 9 7 7 6 6 6 6 7 7 8 9 10 10 11 12 11 11 11 12 12 11 11 10 10 10 10 9 7 5 4 5 7 8 8 8 8 8 6 7
17 15 14 13 11 8 7 9 10 10 9 9 10 10 11 13 13 12 14 14 14 13 13 12 12 11 11 10 9 8 7 5 3 3 4 6 5 7 9 10 8 8 7
17 17 15 14 11 8 7 8 10 11 11 11 12 13 14 14 14 15 16 16 16 15 13 12 10 11 9 8 7 5 5 4 4 3 4 6 7 7 7 9 10 10 8
19 17 16 14 10 7 6 6 6 8 9 11 11 12 14 15 16 17 18 17 17 16 15 14 12 10 10 9 7 6 5 4 3 3 3 4 8 10 10 7 7 7 9
19 17 18 14 9 8 7 6 6 7 8 9 10 11 13 15 17 19 20 19 19 18 18 17 15 13 12 11 9 8 6 5 3 1 1 2 3 6 10 11 9 8 8
17 19 19 15 11 9 8 7 7 7 8 10 12 13 14 16 18 20 21 22 21 20 19 18 16 15 14 12 10 9 8 7 5 4 2 2 3 3 4 6 7 8 9
12 18 18 15 11 10 9 8 7 7 8 10 13 15 17 17 19 22 25 26 25 24 24 22 20 20 15 14 13 12 11 10 8 7 5 3 1 2 3 3 3 5 8
12 14 14 13 11 10 10 9 9 8 10 13 15 18 20 22 23 25 28 31 30 29 29 27 26 22 21 17 15 15 14 13 12 11 9 6 1 2 3 3 5 7 8
10 12 13 12 8 9 7 8 8 9 13 18 19 22 23 24 24 26 29 31 33 32 36 34 30 26 21 20 11 16 17 18 17 14 13 9 5 4 2 6 8 9 11
8 6 3 1 4 7 9 10 11 14 14 17 19 23 25 27 28 26 24 27 28 26 29 37 32 25 20 20 16 14 6 10 12 15 13 11 8 6 3 6 7 7 9
8 6 6 6 7 9 10 11 11 12 13 14 19 23 25 23 22 25 27 26 26 25 27 31 32 31 29 21 24 17 6 9 7 11 17 12 10 6 3 3 3 7 7
9 11 16 16 14 14 14 14 15 10 12 14 18 21 28 28 29 29 30 29 27 25 25 27 27 29 27 27 15 20 12 8 8 9 11 12 8 6 6 4 5 5 6
16 17 15 14 16 17 18 17 15 13 12 16 20 26 29 29 30 29 27 27 27 24 23 22 21 20 23 26 23 13 11 7 3 7 9 8 7 9 7 8 9 6 7
13 13 13 13 14 17 17 16 16 17 19 21 27 31 33 33 31 31 26 21 17 14 8 3 2 3 1 6 4 2 6 8 7 5 4 7 11 14 11 12 9 10 6